Location: Pedimozza
(42.0500°N, 9.3500°E)
Time: 23:35:59
(UTC+00:00)

SL-08 RB Rocket - Pass Details

Date: 19 August 2019
Orbit: 646 x 685 km, 97.9° (Epoch: 18 October)

Event Time Altitude Azimuth Distance (km) Brightness Sun altitude
Exits shadow 19:21:05 12° 149° (SSE) 1,911 5.5 -11.6°
Maximum altitude 19:25:05 55° 73° (ENE) 800 3.9 -12.3°
Drops below altitude 10° 19:29:34 10° 356° (N) 2,100 6.8 -13.0°
Sets 19:31:51 0° 352° (N) 3,024 7.7 -13.3°
